Date String (YYYY-MM-DD hh:mm:ss) UTC,Instrument flags,absolute air pressure of the measurement (hPa),sample flow rate (lpm),inlet stack bypass flow (lpm),air temperature of the measurement (°C),ambient temperature measured by the external sensor (°C),aerosol sample conditioner tube jacket temperature (°C),OPC LED temperature (°C),internal box temperature (°C),relative humidity of the measurement (%),span deviation,mass concentration of particles derived from Lorenz-Mie calculation of OPC scattering (μg/m³),mass concentration of particles derived from Lorenz-Mie calculation of OPC scattering (μg/m³),mass concentration of particles derived from Lorenz-Mie calculation of OPC scattering (μg/m³)
DateTimeUTC,F1_M11,P_M11,Q1_M11,Q2_M11,T1_M11,T2_M11,T3_M11,T4_M11,T5_M11,U1_M11,ZSPAN_M11,X0_M11,X2_M11,X1_M11
2023-06-03 05:00:00,SystemResetWarning,0829.9,4.99,000.00,029.7,027.3,000.0,038.1,031.2,24.7,0000.0,0006.36,0002.18,0001.52
2023-06-03 05:01:00,SystemResetWarning,0829.9,5.01,000.00,029.7,027.5,000.0,038.1,031.2,24.8,0000.0,0005.55,0002.24,0001.59
2023-06-03 05:02:00,SystemResetWarning,0830.0,5.00,000.00,029.7,027.7,000.0,038.1,031.2,25.0,0000.0,0005.39,0002.26,0001.64
2023-06-03 05:03:00,SystemResetWarning,0829.9,5.01,000.00,029.7,027.8,000.0,038.1,031.3,24.9,0000.0,0005.82,0002.35,0001.68
2023-06-03 05:04:00,SystemResetWarning,0829.9,5.01,000.00,029.7,027.9,000.0,038.1,031.3,24.7,0000.0,0007.03,0002.50,0001.75
2023-06-03 05:05:00,SystemResetWarning,0829.9,5.00,000.00,029.7,028.0,000.0,038.1,031.3,24.7,0000.0,0006.92,0002.54,0001.83
2023-06-03 05:06:00,SystemResetWarning,0829.9,4.99,000.00,029.7,028.0,000.0,038.1,031.3,24.8,0000.0,0006.93,0002.61,0001.89
2023-06-03 05:07:00,SystemResetWarning,0830.0,4.99,000.00,029.7,028.1,000.0,038.1,031.3,24.7,0000.0,0006.60,0002.70,0001.94
2023-06-03 05:08:00,SystemResetWarning,0830.0,5.00,000.00,029.7,028.2,000.0,038.1,031.4,24.6,0000.0,0006.54,0002.79,0001.99
2023-06-03 05:09:00,SystemResetWarning,0830.0,5.00,000.00,029.7,028.2,000.0,038.1,031.4,24.5,0000.0,0006.68,0002.93,0002.03
2023-06-03 05:10:00,SystemResetWarning,0830.0,5.02,000.00,029.8,028.3,000.0,038.1,031.4,24.5,0000.0,0007.17,0003.06,0002.08
2023-06-03 05:11:00,SystemResetWarning,0830.0,5.01,000.00,029.8,028.3,000.0,038.1,031.4,24.4,0000.0,0007.33,0003.14,0002.16
2023-06-03 05:12:00,SystemResetWarning,0830.0,5.00,000.00,029.8,028.3,000.0,038.1,031.4,24.2,0000.0,0007.37,0003.17,0002.23
2023-06-03 05:13:00,SystemResetWarning,0830.0,4.99,000.00,029.8,028.4,000.0,038.1,031.5,24.3,0000.0,0007.64,0003.23,0002.28
2023-06-03 05:14:00,SystemResetWarning,0830.0,5.00,000.00,029.8,028.4,000.0,038.1,031.5,24.7,0000.0,0007.75,0003.25,0002.30
2023-06-03 05:15:00,SystemResetWarning,0830.0,5.00,000.00,029.9,028.4,000.0,038.1,031.5,24.5,0000.0,0006.78,0003.22,0002.29
2023-06-03 05:16:00,SystemResetWarning,0830.0,5.00,000.00,029.9,028.4,000.0,038.2,031.5,24.6,0000.0,0006.81,0003.23,0002.28
2023-06-03 05:17:00,SystemResetWarning,0830.1,5.00,000.00,029.9,028.5,000.0,038.2,031.5,25.1,0000.0,0006.84,0003.23,0002.26
2023-06-03 05:18:00,SystemResetWarning,0830.1,5.00,000.00,029.9,028.5,000.0,038.2,031.6,25.3,0000.0,0007.51,0003.24,0002.26
2023-06-03 05:19:00,SystemResetWarning,0830.0,5.01,000.00,029.9,028.5,000.0,038.2,031.6,25.1,0000.0,0007.48,0003.25,0002.26
2023-06-03 05:20:00,SystemResetWarning,0830.1,5.01,000.00,030.0,028.5,000.0,038.2,031.6,25.2,0000.0,0007.32,0003.20,0002.26
2023-06-03 05:21:00,SystemResetWarning,0830.0,5.00,000.00,030.0,028.6,000.0,038.2,031.6,25.4,0000.0,0007.66,0003.20,0002.27
2023-06-03 05:22:00,SystemResetWarning,0830.1,4.99,000.00,030.0,028.6,000.0,038.2,031.7,25.4,0000.0,0008.09,0003.20,0002.25
2023-06-03 05:23:00,SystemResetWarning,0830.1,4.99,000.00,030.0,028.6,000.0,038.3,031.7,25.4,0000.0,0008.27,0003.24,0002.23
2023-06-03 05:24:00,SystemResetWarning,0830.1,5.00,000.00,030.0,028.6,000.0,038.3,031.7,25.6,0000.0,0008.13,0003.23,0002.19
2023-06-03 05:25:00,SystemResetWarning,0830.1,5.00,000.00,030.0,028.6,000.0,038.3,031.7,26.1,0000.0,0008.18,0003.27,0002.24
2023-06-03 05:26:00,SystemResetWarning,0830.2,5.00,000.00,030.1,028.6,000.0,038.3,031.7,26.6,0000.0,0008.15,0003.29,0002.34
2023-06-03 05:27:00,SystemResetWarning,0830.2,4.99,000.00,030.1,028.6,000.0,038.3,031.7,26.6,0000.0,0008.28,0003.40,0002.49
2023-06-03 05:28:00,SystemResetWarning,0830.1,5.00,000.00,030.1,028.7,000.0,038.3,031.8,26.5,0000.0,0008.45,0003.53,0002.68
2023-06-03 05:29:00,SystemResetWarning,0830.1,5.00,000.00,030.1,028.7,000.0,038.4,031.7,26.5,0000.0,0008.05,0003.61,0002.87
2023-06-03 05:30:00,SystemResetWarning,0830.1,5.00,000.00,030.1,028.7,000.0,038.4,031.7,26.4,0000.0,0008.28,0003.68,0003.03
2023-06-03 05:31:00,SystemResetWarning,0830.1,5.00,000.00,030.1,028.7,000.0,038.4,031.8,26.6,0000.0,0008.79,0003.80,0003.16
2023-06-03 05:32:00,SystemResetWarning,0830.1,5.00,000.00,030.1,028.7,000.0,038.4,031.8,26.6,0000.0,0008.55,0003.92,0003.25
2023-06-03 05:33:00,SystemResetWarning,0830.1,5.00,000.00,030.1,028.7,000.0,038.4,031.8,26.5,0000.0,0008.27,0004.02,0003.35
2023-06-03 05:34:00,SystemResetWarning,0830.1,5.00,000.00,030.2,028.7,000.0,038.4,031.8,26.3,0000.0,0008.32,0004.12,0003.46
2023-06-03 05:35:00,SystemResetWarning,0830.1,5.00,000.00,030.2,028.7,000.0,038.5,031.8,26.3,0000.0,0008.43,0004.21,0003.56
2023-06-03 05:36:00,SystemResetWarning,0830.1,5.00,000.00,030.2,028.7,000.0,038.5,031.8,26.4,0000.0,0008.55,0004.33,0003.66
2023-06-03 05:37:00,SystemResetWarning,0830.1,5.00,000.00,030.2,028.8,000.0,038.5,031.9,26.4,0000.0,0008.74,0004.44,0003.73
2023-06-03 05:38:00,SystemResetWarning,0830.1,5.00,000.00,030.2,028.8,000.0,038.5,031.9,26.2,0000.0,0008.91,0004.47,0003.77
2023-06-03 05:39:00,SystemResetWarning,0830.1,5.00,000.00,030.2,028.8,000.0,038.5,031.9,26.1,0000.0,0009.80,0004.52,0003.81
2023-06-03 05:40:00,SystemResetWarning,0830.1,5.00,000.00,030.2,028.8,000.0,038.5,031.9,26.2,0000.0,0009.95,0004.59,0003.83
2023-06-03 05:41:00,SystemResetWarning,0830.1,5.00,000.00,030.2,028.8,000.0,038.5,031.9,26.3,0000.0,0009.90,0004.66,0003.86
2023-06-03 05:42:00,SystemResetWarning,0830.1,5.00,000.00,030.3,028.8,000.0,038.5,031.9,26.3,0000.0,0009.47,0004.66,0003.86
2023-06-03 05:43:00,SystemResetWarning,0830.1,4.98,000.00,030.2,027.6,000.0,038.5,031.7,26.3,0000.0,0009.27,0004.64,0003.87
2023-06-03 05:44:00,SystemResetWarning,0830.1,5.01,000.00,030.2,025.9,000.0,038.4,031.5,26.6,0000.0,0009.30,0004.66,0003.88
2023-06-03 05:45:00,SystemResetWarning,0830.1,5.00,000.00,030.1,025.4,000.0,038.3,031.3,26.8,0000.0,0009.22,0004.63,0003.88
2023-06-03 05:46:00,SystemResetWarning,0830.1,5.01,000.00,029.9,025.6,000.0,038.3,031.1,27.2,0000.0,0009.32,0004.62,0003.87
2023-06-03 05:47:00,SystemResetWarning,0830.1,4.99,000.00,029.9,026.0,000.0,038.3,031.2,27.4,0000.0,0009.37,0004.60,0003.87
2023-06-03 05:48:00,SystemResetWarning,0830.1,4.99,000.00,029.8,026.3,000.0,038.3,031.2,27.5,0000.0,0009.55,0004.58,0003.87
2023-06-03 05:49:00,SystemResetWarning,0830.1,4.99,000.00,029.8,026.7,000.0,038.3,031.2,27.6,0000.0,0009.41,0004.56,0003.85
2023-06-03 05:50:00,SystemResetWarning,0830.1,5.00,000.00,029.8,027.0,000.0,038.2,031.2,27.8,0000.0,0008.62,0004.54,0003.84
2023-06-03 05:51:00,SystemResetWarning,0830.1,5.00,000.00,029.8,027.2,000.0,038.2,031.3,28.0,0000.0,0008.59,0004.52,0003.83
2023-06-03 05:52:00,SystemResetWarning,0830.1,5.01,000.00,029.7,027.4,000.0,038.2,031.3,28.2,0000.8,0008.99,0004.50,0003.82
2023-06-03 05:53:00,SystemResetWarning,0830.2,5.00,000.00,029.7,027.6,000.0,038.2,031.3,28.4,0001.1,0009.24,0004.51,0003.83
2023-06-03 05:54:00,SystemResetWarning,0830.2,4.99,000.00,029.7,027.7,000.0,038.2,031.3,28.5,0000.6,0009.73,0004.52,0003.82
2023-06-03 05:55:00,SystemResetWarning,0830.2,4.99,000.00,029.7,027.9,000.0,038.2,031.3,28.4,0000.0,0009.77,0004.47,0003.79
2023-06-03 05:56:00,SystemResetWarning,0830.2,4.99,000.00,029.8,027.9,000.0,038.2,031.3,28.0,0000.0,0010.07,0004.41,0003.74
2023-06-03 05:57:00,SystemResetWarning,0830.2,5.00,000.00,029.8,028.0,000.0,038.2,031.4,27.7,0000.0,0009.80,0004.34,0003.68
2023-06-03 05:58:00,SystemResetWarning,0830.2,5.00,000.00,029.8,028.1,000.0,038.2,031.4,27.6,0000.0,0009.73,0004.26,0003.63
2023-06-03 05:59:00,SystemResetWarning,0830.1,5.01,000.00,029.8,028.1,000.0,038.2,031.4,27.4,0000.0,0010.20,0004.19,0003.57
